Skip Page Navigation
NASA JPL Caltech
NASA Logo - Jet Propulsion Laboratory + View the NASA Portal
+ Center for Near-Earth Object Studies
JPL Home Earth Solar System Stars & Galaxies Technology
JPL Solar System Dynamics
BODIES ORBITS EPHEMERIDES TOOLS PHYSICAL DATA DISCOVERY FAQ SITE MAP

Significant website upgrade scheduled for September 27. More details available here.

JPL Small-Body Database Browser
Search: [ help ]  
90333 (2003 FW92)
Classification: Main-belt Asteroid          SPK-ID: 2090333
Ephemeris | Orbit Diagram | Orbital Elements | Mission Design | Physical Parameters | Discovery Circumstances | Close-Approach Data ]

[ show orbit diagram ]
Orbital Elements at Epoch 2459396.5 (2021-Jul-01.0) TDB
Reference: JPL 23 (heliocentric ecliptic J2000)
 Element Value Uncertainty (1-sigma)   Units 
e .1354474015265198 4.2855e-08  
a 2.860011874120743 1.6916e-08 au
q 2.472630697436096 1.2873e-07 au
i 7.525562555963027 3.8543e-06 deg
node 145.7348416607766 3.2326e-05 deg
peri 54.59461435333597 3.5837e-05 deg
M 274.9681767731792 1.9402e-05 deg
tp 2459813.781539156793
(2022-Aug-22.28153916)
9.7262e-05 TDB
period 1766.648631015859
4.84
1.5674e-05
4.291e-08
d
yr
n .2037756652226836 1.8079e-09 deg/d
Q 3.247393050805389 1.9207e-08 au
  Orbit Determination Parameters
   # obs. used (total)      687  
   data-arc span      10208 days (27.95 yr)  
   first obs. used      1993-02-26  
   last obs. used      2021-02-07  
   planetary ephem.      DE441  
   SB-pert. ephem.      SB441-N16  
   condition code      0  
   norm. resid. RMS      .55715  
   source      ORB  
   producer      Otto Matic  
   solution date      2021-Apr-13 14:39:41  

Additional Information
 Earth MOID = 1.48082 au 
 Jupiter MOID = 1.7347 au 
 T_jup = 3.276 
[ show covariance matrix ]

Ephemeris | Orbit Diagram | Orbital Elements | Mission Design | Physical Parameters | Discovery Circumstances | Close-Approach Data ]

Physical Parameter Table
Parameter Symbol Value Units Sigma Reference Notes
absolute magnitude H 15.30   n/a MPCxxxxx  
diameter diameter 5.002 km 1.757 urn:nasa:pds:neowise_diameters_albedos::2.0[mainbelt] (http://adsabs.harvard.edu/abs/2011ApJ...741...68M)  
geometric albedo albedo 0.045   0.037 urn:nasa:pds:neowise_diameters_albedos::2.0[mainbelt] (http://adsabs.harvard.edu/abs/2011ApJ...741...68M)  

90333 (2003 FW92)          Discovered 2003-Mar-29 by LONEOS at Anderson Mesa
Reference: 20040830/Numbers.arcLast Updated: 2004-09-06

[ show close-approach data ]
Ephemeris | Orbit Diagram | Orbital Elements | Mission Design | Physical Parameters | Discovery Circumstances | Close-Approach Data ]
ABOUT SSD CREDITS/AWARDS PRIVACY/COPYRIGHT GLOSSARY LINKS
FirstGov 2021-Sep-25 15:24 UT
(server date/time)  
NASA Home Page
Site Manager:   Ryan S. Park
Webmaster  Alan B. Chamberlin